sat.trackr.live / text

‹ back to catalog

STARLINK-35597

NORAD 66493 · 2025-263J

PAYLOAD ACTIVE UNKNOWN

§ Identity

Operator
Country
US
Launch date
2025-11-15
Launch site
AFETR
Launch vehicle
Mass (kg)
RCS (m²)

Purposes: comms

External: N2YO · Heavens-Above · Gunter

§ Orbital elements

Epoch: 2026-09-20T12:39:59.512032Z

Period
94.27 min
Inclination
43.0026°
Eccentricity
0.0001270
Mean motion
15.27589312 rev/d
Perigee alt
482.1 km
Apogee alt
483.9 km
Semi-major
6,861.2 km
B*
3.3770e-4
RAAN
330.6339°
Arg perigee
268.4784°
Mean anomaly
91.5922°
Rev number
4,869

§ Raw data

STARLINK-355971 66493U 25263J   26263.52777213  .00009045  00000+0  33770-3 0  99992 66493  43.0026 330.6339 0001270 268.4784  91.5922 15.27589312 48699

JSON: /api/v1/satellites/66493 · /tle

For live sub-satellite position, see the globe view (requires WebGL).

§ Visibility from observer

Set your observer location to see the next 7 days of passes ≥ 10°. The values pass through the URL so the page stays shareable.

No JS? Fill the form by hand. The geolocation button needs JavaScript.